• MPC Preparation (Info)

  • MPEC 2019-N59 : 2019 MY3

    The following Minor Planet Electronic Circular may be linked-to from your own Web pages, but must not otherwise be redistributed electronically.

    A form allowing access to any MPEC is at the bottom of this page.


    Read MPEC 2019-N58 Read MPEC 2019-N60


    M.P.E.C. 2019-N59                                Issued 2019 July 4, 19:30 UT  
    
         The Minor Planet Electronic Circulars contain information on unusual
             minor planets and routine data on comets.  They are published
        on behalf of Division F of the International Astronomical Union by the
              Minor Planet Center, Smithsonian Astrophysical Observatory,
                              Cambridge, MA 02138, U.S.A.
    
                 Prepared using the Tamkin Foundation Computer Network
    
                                  MPC@CFA.HARVARD.EDU
                URL https://www.minorplanetcenter.net/    ISSN 1523-6714
    
                                    2019 MY3                                 
    
    Observations:
         K19M03Y* C2019 06 28.44540 19 21 02.987-31 02 48.30         19.5 wUEN059F51
         K19M03Y  C2019 06 28.45511 19 21 11.306-31 01 27.73         19.5 wUEN059F51
         K19M03Y  C2019 06 28.47451 19 21 27.833-30 58 46.61         19.8 wUEN059F51
         K19M03Y  C2019 07 04.35342 20 44 26.74 -15 00 22.8          19.9 GVEN059G96
         K19M03Y  C2019 07 04.35859 20 44 30.24 -14 59 29.8          19.9 GVEN059G96
         K19M03Y  C2019 07 04.36376 20 44 33.75 -14 58 37.3          20.1 GVEN059G96
         K19M03Y  C2019 07 04.50057 20 46 13.002-14 34 50.67         20.0 wUEN059F52
         K19M03Y  C2019 07 04.51996 20 46 25.772-14 31 32.56         20.4 wUEN059F52
         K19M03Y  C2019 07 04.52968 20 46 32.164-14 29 53.06         20.5 wUEN059F52
    
    Observer details:
    F51 Pan-STARRS 1, Haleakala.  Observers J. Bulger, T. Lowe, A. Schultz,
        M. Willman.  Measurers K. Chambers, S. Chastel, T. de Boer, L. Denneau,
        J. Fairlamb, H. Flewelling, M. Huber, C.-C. Lin, E. Magnier, Y. Ramanjooloo,
        R. Wainscoat, R. Weryk.  1.8-m Ritchey-Chretien + CCD.
    F52 Pan-STARRS 2, Haleakala.  Observers J. Bulger, T. Dukes, T. Lowe,
        A. Schultz, M. Willman.  Measurers K. Chambers, S. Chastel, T. de Boer,
        L. Denneau, J. Fairlamb, H. Flewelling, M. Huber, C.-C. Lin, E. Magnier,
        Y. Ramanjooloo, R. Wainscoat, R. Weryk.  1.8-m Ritchey-Chretien + CCD.
    G96 Mt. Lemmon Survey.  Observer T. A. Pruyne.  Measurers B. M. Africano,
        E. J. Christensen, G. A. Farneth, D. C. Fuls, A. R. Gibbs, A. D. Grauer,
        H. Groeller, R. A. Kowalski, S. M. Larson, G. J. Leonard, T. A. Pruyne,
        D. Rankin, R. L. Seaman, F. C. Shelly.  1.5-m reflector + 10K CCD.
    
    Orbital elements:
    2019 MY3                                                 Earth MOID = 0.0461 AU
    Epoch 2019 Apr. 27.0 TT = JDT 2458600.5                 MPC
    M 335.24851              (2000.0)            P               Q
    n   0.34342906     Peri.    5.69488     +0.29554652     +0.95115340
    a   2.0195039      Node   281.51966     -0.88005132     +0.23473305
    e   0.4738308      Incl.    5.22401     -0.37170139     +0.20051834
    P   2.87           H   25.0           G   0.15           U   7
    Residuals in seconds of arc
    190628 F51  0.2-  0.1-    190704 G96  0.3-  0.1-    190704 F52  0.1-  0.1+
    190628 F51  0.2+  0.2+    190704 G96  0.0   0.1+    190704 F52  0.0   0.1+
    190628 F51  0.0   0.1-    190704 G96  0.5+  0.2-    190704 F52  0.1-  0.0
    
    Ephemeris:
    2019 MY3                 a,e,i = 2.02, 0.47, 5                   q = 1.0626
    Date    TT    R. A. (2000) Decl.     Delta      r    Elong.  Phase     V
    2019 06 04    15 29 29.8 -43 23 57   0.1283  1.1308   153.7    23.4    21.9
    ...
    2019 06 19    17 07 15.2 -43 09 17   0.07348 1.0848   158.6    20.0    20.5
    ...
    2019 06 27    18 58 31.5 -34 07 40   0.05502 1.0701   166.5    12.8    19.6
    ...
    2019 07 03    20 27 11.3 -18 51 12   0.05164 1.0641   156.0    22.9    19.8
    2019 07 04    20 40 02.2 -15 59 00   0.05215 1.0636   153.2    25.5    19.9
    2019 07 05    20 52 08.4 -13 08 47   0.05296 1.0631   150.4    28.2    20.0
    ...
    2019 07 11    21 49 24.6 +01 27 31   0.06291 1.0630   136.3    41.3    20.7
    ...
    2019 07 19    22 34 01.9 +13 00 03   0.08446 1.0698   127.5    48.9    21.6
    ...
    2019 08 03    23 07 57.7 +21 09 17   0.1331  1.1027   128.6    46.0    22.6
    
    A. U. Tomatic                (C) Copyright 2019 MPC           M.P.E.C. 2019-N59
    


    Read MPEC 2019-N58 Read MPEC 2019-N60


    MPEC number:

    Enter an MPEC number in one of the following forms:

    • 1997-B01 (the full form)
    • J97B01 (the packed version of the full form)
    • B01 (the abbreviated form)